Flag for U.S.A. Weather past 2 weeks in Springfield, Missouri, U.S.A.

Now
84 °F

Sunny.


Feels Like: 86 °F
Forecast: 71 / 86 °F
Wind: No wind

Location: Springfield Regional Airport

Current Time: Jun 30, 2015 at 8:55:00 PM

Latest Report: Jun 30, 2015 at 7:52 PM


Visibility: 9 mi

Pressure: 29.89 "Hg

Humidity: 53%

Dew point: 65 °F

Location of SpringfieldLocation

Historic Weather in Springfield — Graph

°F

Springfield temperature yesterday

Maximum temperature yesterday: 85 °F (at 1:52 PM)
Minimum temperature yesterday: 70 °F (at 11:52 PM)
Average temperature yesterday: 78 °F

Past Weeks' High & Low Weather Summary

 TemperatureHumidityPressure
High92 °F (Jun 24, 3:52 PM)97% (Jun 20, 1:02 AM)30.11 "Hg (Jun 20, 1:02 AM)
Low61 °F (Jun 28, 2:52 AM)45% (Jun 20, 6:52 PM)29.77 "Hg (Jun 19, 3:52 AM)
Average77 °F76%29.96 "Hg
* Reported Jun 15 6:52 PM — Jun 30 6:52 PM, Springfield, Weather by CustomWeather, © 2015

Note: Actual official high and low records may vary slightly from our data, if they occured in-between our weather recording intervals... More about our weather records

Advertising

Springfield weather history for previous 24 hours

 ConditionsComfort  
Time TempWeatherWind HumidityBarometerVisibility
6:52 PM
Tue, Jun 30
85 °FSunny.3 mph53%29.88 "Hg9 mi
5:52 PM87 °FSunny.6 mph51%29.89 "Hg9 mi
4:52 PM87 °FSunny.7 mph50%29.90 "Hg10 mi
3:52 PM86 °FSunny.5 mph53%29.91 "Hg10 mi
2:52 PM85 °FSunny.8 mph53%29.92 "Hg10 mi
1:52 PM83 °FSunny.7 mph59%29.93 "Hg10 mi
12:52 PM81 °FSunny.10 mph62%29.95 "Hg10 mi
11:52 AM80 °FSunny.9 mph62%29.95 "Hg10 mi
10:52 AM81 °FSunny.13 mph58%29.95 "Hg10 mi
9:52 AM78 °FSunny.9 mph62%29.96 "Hg10 mi
8:52 AM75 °FSunny.8 mph66%29.96 "Hg10 mi
7:52 AM71 °FSunny.8 mph73%29.95 "Hg10 mi
6:52 AM68 °FClear.7 mph78%29.94 "Hg10 mi
5:52 AM68 °FClear.8 mph78%29.93 "Hg10 mi
4:52 AM68 °FClear.8 mph82%29.91 "Hg10 mi
3:52 AM69 °FClear.5 mph79%29.90 "Hg10 mi
2:52 AM68 °FClear.5 mph84%29.91 "Hg10 mi
1:52 AM70 °FClear.7 mph81%29.93 "Hg10 mi
12:52 AM70 °FClear.7 mph81%29.93 "Hg10 mi
11:52 PM
Mon, Jun 29
70 °FClear.7 mph84%29.92 "Hg10 mi
10:52 PM71 °FClear.6 mph81%29.93 "Hg10 mi
9:52 PM71 °FClear.5 mph84%29.91 "Hg10 mi
8:52 PM78 °FSunny.No wind60%29.89 "Hg10 mi
Weather by CustomWeather, © 2015

See weather overviewHow to use our weather pages